OH2FDL-2 Weather Reports


Display with metric or nautical units.
time (UTC)temp
F
wind
direction
speed
MPH
gust
MPH
rain 1hr
in
rain 24hr
in
rain mn
in
humidity
%
barometer
mb
20260904191528 49 0.0 0.0 0.00 0.00 0.00 10 992.7
20260904190026 50 0.0 0.0 0.00 0.00 0.00 10 992.8
20260904184523 50 0.0 0.0 0.00 0.00 0.00 10 993.0
20260904181517 51 0.0 0.0 0.00 0.00 0.00 10 993.2
20260904180018 52 0.0 0.0 0.00 0.00 0.00 10 993.2
20260904174518 53 0.0 0.0 0.00 0.00 0.00 10 993.2
20260904173027 54 0.0 0.0 0.00 0.00 0.00 10 993.2
20260904171527 55 0.0 0.0 0.00 0.00 0.00 10 993.3
20260904170023 56 0.0 0.0 0.00 0.00 0.00 10 993.4
20260904163018 58 0.0 0.0 0.00 0.00 0.00 10 993.5
20260904161518 59 0.0 0.0 0.00 0.00 0.00 10 993.5
20260904160018 60 0.0 0.0 0.00 0.00 0.00 10 993.6
20260904154529 61 0.0 0.0 0.00 0.00 0.00 10 993.6
20260904153023 62 0.0 0.0 0.00 0.00 0.00 10 993.7
20260904151518 63 0.0 0.0 0.00 0.00 0.00 10 993.8
20260904150018 65 0.0 0.0 0.00 0.00 0.00 10 993.9
20260904144518 66 0.0 0.0 0.00 0.00 0.00 10 993.9
20260904143018 67 0.0 0.0 0.00 0.00 0.00 10 993.8
20260904141527 68 0.0 0.0 0.00 0.00 0.00 10 994.0
20260904140022 68 0.0 0.0 0.00 0.00 0.00 10 994.0
20260904134522 65 0.0 0.0 0.00 0.00 0.00 10 994.1
20260904133019 62 0.0 0.0 0.00 0.00 0.00 10 994.2
20260904131518 60 0.0 0.0 0.00 0.00 0.00 10 994.2
20260904130018 60 0.0 0.0 0.00 0.00 0.00 10 994.2
20260904124518 58 0.0 0.0 0.00 0.00 0.00 10 994.3
20260904123023 58 0.0 0.0 0.00 0.00 0.00 10 994.3
20260904121523 60 0.0 0.0 0.00 0.00 0.00 10 994.4
20260904120018 63 0.0 0.0 0.00 0.00 0.00 10 994.2
20260904113017 63 0.0 0.0 0.00 0.00 0.00 10 994.2
20260904111518 62 0.0 0.0 0.00 0.00 0.00 10 994.2
20260904104523 62 0.0 0.0 0.00 0.00 0.00 10 994.3
20260904101518 61 0.0 0.0 0.00 0.00 0.00 10 994.5
20260904100018 62 0.0 0.0 0.00 0.00 0.00 10 994.7
20260904094518 63 0.0 0.0 0.00 0.00 0.00 10 994.7
20260904091518 61 0.0 0.0 0.00 0.00 0.00 10 995.0
20260904090018 60 0.0 0.0 0.00 0.00 0.00 10 995.1
20260904084518 59 0.0 0.0 0.00 0.00 0.00 10 995.2
20260904080018 54 0.0 0.0 0.00 0.00 0.00 10 995.3
20260904074517 53 0.0 0.0 0.00 0.00 0.00 10 995.3
20260904073018 52 0.0 0.0 0.00 0.00 0.00 10 995.4
20260904071517 50 0.0 0.0 0.00 0.00 0.00 10 995.4
20260904070018 48 0.0 0.0 0.00 0.00 0.00 10 995.6
20260904064518 47 0.0 0.0 0.00 0.00 0.00 10 995.9
20260904063018 46 0.0 0.0 0.00 0.00 0.00 10 995.9
20260904061518 45 0.0 0.0 0.00 0.00 0.00 10 996.0
20260904060018 44 0.0 0.0 0.00 0.00 0.00 10 996.1
20260904053018 44 0.0 0.0 0.00 0.00 0.00 10 996.1
20260904051518 43 0.0 0.0 0.00 0.00 0.00 10 996.3
20260904050018 43 0.0 0.0 0.00 0.00 0.00 10 996.4
20260904043018 41 0.0 0.0 0.00 0.00 0.00 10 996.7
20260904040018 40 0.0 0.0 0.00 0.00 0.00 10 997.0
20260904034517 40 0.0 0.0 0.00 0.00 0.00 10 997.3
20260904033018 40 0.0 0.0 0.00 0.00 0.00 10 997.4
20260904031518 40 0.0 0.0 0.00 0.00 0.00 10 997.6
20260904024519 40 0.0 0.0 0.00 0.00 0.00 10 997.9
20260904023023 40 0.0 0.0 0.00 0.00 0.00 10 998.2
20260904021518 41 0.0 0.0 0.00 0.00 0.00 10 998.2
20260904014517 41 0.0 0.0 0.00 0.00 0.00 10 998.4
20260904011518 41 0.0 0.0 0.00 0.00 0.00 10 998.7
20260904010018 41 0.0 0.0 0.00 0.00 0.00 10 998.9
20260904004523 41 0.0 0.0 0.00 0.00 0.00 10 999.1
20260904003018 41 0.0 0.0 0.00 0.00 0.00 10 999.3
20260904001518 42 0.0 0.0 0.00 0.00 0.00 10 999.4
20260904000018 42 0.0 0.0 0.00 0.00 0.00 10 999.5
20260903234518 42 0.0 0.0 0.00 0.00 0.00 10 999.6
20260903233018 42 0.0 0.0 0.00 0.00 0.00 10 999.8
20260903231517 43 0.0 0.0 0.00 0.00 0.00 10 999.9
20260903230023 43 0.0 0.0 0.00 0.00 0.00 10 1000.0
20260903223017 44 0.0 0.0 0.00 0.00 0.00 10 1000.2
20260903221518 44 0.0 0.0 0.00 0.00 0.00 10 1000.3
20260903220017 44 0.0 0.0 0.00 0.00 0.00 10 1000.5
20260903214518 44 0.0 0.0 0.00 0.00 0.00 10 1000.6
20260903213023 45 0.0 0.0 0.00 0.00 0.00 10 1000.7
20260903211518 45 0.0 0.0 0.00 0.00 0.00 10 1000.7
20260903210017 45 0.0 0.0 0.00 0.00 0.00 10 1000.7
20260903204518 46 0.0 0.0 0.00 0.00 0.00 10 1000.8
20260903201518 47 0.0 0.0 0.00 0.00 0.00 10 1001.0
20260903200018 47 0.0 0.0 0.00 0.00 0.00 10 1001.0
20260903194518 48 0.0 0.0 0.00 0.00 0.00 10 1001.2
20260903193018 48 0.0 0.0 0.00 0.00 0.00 10 1001.2